Year,Month,Day,Hour,Minute,Value (Times are PST for temperature in C)
2019,08,13,00,00,12.70
2019,08,13,00,01,12.70
2019,08,13,00,02,12.70
2019,08,13,00,03,12.70
2019,08,13,00,04,12.80
2019,08,13,00,05,12.80
2019,08,13,00,06,12.80
2019,08,13,00,07,12.80
2019,08,13,00,08,12.80
2019,08,13,00,09,12.80
2019,08,13,00,10,12.80
2019,08,13,00,11,12.80
2019,08,13,00,12,12.80
2019,08,13,00,13,12.80
2019,08,13,00,14,12.80
2019,08,13,00,15,12.80
2019,08,13,00,16,12.80
2019,08,13,00,17,12.80
2019,08,13,00,18,12.80
2019,08,13,00,19,12.80
2019,08,13,00,20,12.90
2019,08,13,00,21,13.00
2019,08,13,00,22,13.20
2019,08,13,00,23,13.30
2019,08,13,00,24,13.40
2019,08,13,00,25,13.60
2019,08,13,00,26,13.70
2019,08,13,00,27,13.80
2019,08,13,00,28,13.90
2019,08,13,00,29,13.90
2019,08,13,00,30,13.80
2019,08,13,00,31,13.60
2019,08,13,00,32,13.30
2019,08,13,00,33,13.00
2019,08,13,00,34,12.90
2019,08,13,00,35,12.80
2019,08,13,00,36,12.80
2019,08,13,00,37,12.80
2019,08,13,00,38,12.70
2019,08,13,00,39,12.70
2019,08,13,00,40,12.60
2019,08,13,00,41,12.60
2019,08,13,00,42,12.60
2019,08,13,00,43,12.60
2019,08,13,00,44,12.60
2019,08,13,00,45,12.60
2019,08,13,00,46,12.60
2019,08,13,00,47,12.60
2019,08,13,00,48,12.60
2019,08,13,00,49,12.60
2019,08,13,00,50,12.60
2019,08,13,00,51,12.60
2019,08,13,01,08,13.80
2019,08,13,01,09,13.90
2019,08,13,01,10,13.90
2019,08,13,01,11,14.00
2019,08,13,01,12,14.10
2019,08,13,01,13,14.00
2019,08,13,01,14,13.90
2019,08,13,01,15,13.80
2019,08,13,01,16,13.90
2019,08,13,01,17,13.90
2019,08,13,01,18,14.00
2019,08,13,01,19,14.00
2019,08,13,01,20,14.00
2019,08,13,01,21,14.00
2019,08,13,01,22,14.00
2019,08,13,01,23,14.00
2019,08,13,01,24,14.10
2019,08,13,01,25,14.10
2019,08,13,01,26,14.20
2019,08,13,01,27,14.20
2019,08,13,01,28,14.20
2019,08,13,01,29,14.30
2019,08,13,01,30,14.40
2019,08,13,01,31,14.60
2019,08,13,01,32,14.70
2019,08,13,01,33,14.80
2019,08,13,01,34,15.00
2019,08,13,01,35,15.10
2019,08,13,01,36,15.30
2019,08,13,01,37,15.50
2019,08,13,01,38,15.60
2019,08,13,01,39,15.70
2019,08,13,01,40,15.80
2019,08,13,01,41,15.90
2019,08,13,01,42,16.00
2019,08,13,01,43,16.00
2019,08,13,01,44,16.10
2019,08,13,01,45,16.10
2019,08,13,01,46,16.20
2019,08,13,01,47,16.20
2019,08,13,01,48,16.30
2019,08,13,01,49,16.30
2019,08,13,01,50,16.20
2019,08,13,01,51,16.20
2019,08,13,01,52,16.10
2019,08,13,01,53,16.10
2019,08,13,01,54,16.10
2019,08,13,01,55,16.00
2019,08,13,01,56,16.00
2019,08,13,01,57,16.00
2019,08,13,01,58,16.00
2019,08,13,01,59,16.00
2019,08,13,02,00,16.00
2019,08,13,02,01,16.00
2019,08,13,02,02,16.00
2019,08,13,02,03,16.10
2019,08,13,02,04,16.10
2019,08,13,02,05,16.20
2019,08,13,02,06,16.10
2019,08,13,02,07,16.10
2019,08,13,02,08,16.10
2019,08,13,02,09,16.20
2019,08,13,02,10,16.20
2019,08,13,02,11,16.30
2019,08,13,02,12,16.30
2019,08,13,02,13,16.40
2019,08,13,02,14,16.40
2019,08,13,02,15,16.40
2019,08,13,02,16,16.40
2019,08,13,02,17,16.40
2019,08,13,02,18,16.50
2019,08,13,02,19,16.60
2019,08,13,02,20,16.60
2019,08,13,02,21,16.60
2019,08,13,02,22,16.60
2019,08,13,02,23,16.50
2019,08,13,02,24,16.50
2019,08,13,02,25,16.50
2019,08,13,02,26,16.50
2019,08,13,02,27,16.50
2019,08,13,02,28,16.50
2019,08,13,02,29,16.50
2019,08,13,02,30,16.40
2019,08,13,02,31,16.40
2019,08,13,02,32,16.40
2019,08,13,02,33,16.30
2019,08,13,02,34,16.30
2019,08,13,02,35,16.30
2019,08,13,02,36,16.30
2019,08,13,02,37,16.30
2019,08,13,02,38,16.30
2019,08,13,02,39,16.30
2019,08,13,02,40,16.30
2019,08,13,02,41,16.30
2019,08,13,02,42,16.20
2019,08,13,02,43,16.10
2019,08,13,02,44,15.80
2019,08,13,02,45,15.40
2019,08,13,02,46,15.20
2019,08,13,02,47,15.10
2019,08,13,02,48,15.10
2019,08,13,02,49,15.10
2019,08,13,02,50,15.20
2019,08,13,02,51,15.20
2019,08,13,02,52,15.20
2019,08,13,02,53,15.10
2019,08,13,02,54,15.00
2019,08,13,02,55,14.90
2019,08,13,02,56,14.90
2019,08,13,02,57,15.00
2019,08,13,02,58,15.00
2019,08,13,02,59,15.10
2019,08,13,03,00,15.10
2019,08,13,03,01,15.10
2019,08,13,03,02,15.00
2019,08,13,03,03,14.90
2019,08,13,03,04,14.80
2019,08,13,03,05,14.80
2019,08,13,03,06,14.80
2019,08,13,03,07,14.80
2019,08,13,03,08,14.80
2019,08,13,03,09,14.80
2019,08,13,03,10,14.80
2019,08,13,03,11,14.60
2019,08,13,03,12,14.50
2019,08,13,03,13,14.40
2019,08,13,03,14,14.20
2019,08,13,03,15,14.20
2019,08,13,03,16,14.20
2019,08,13,03,17,14.10
2019,08,13,03,18,14.10
2019,08,13,03,19,14.00
2019,08,13,03,20,14.00
2019,08,13,03,21,14.00
2019,08,13,03,22,14.00
2019,08,13,03,23,13.90
2019,08,13,03,24,13.80
2019,08,13,03,25,13.70
2019,08,13,03,26,13.70
2019,08,13,03,27,13.60
2019,08,13,03,28,13.60
2019,08,13,03,29,13.60
2019,08,13,03,30,13.60
2019,08,13,03,31,13.60
2019,08,13,03,32,13.60
2019,08,13,03,33,13.60
2019,08,13,03,34,13.60
2019,08,13,03,35,13.70
2019,08,13,03,36,13.80
2019,08,13,03,37,13.90
2019,08,13,03,38,14.00
2019,08,13,03,39,14.10
2019,08,13,03,40,14.10
2019,08,13,03,41,14.20
2019,08,13,03,42,14.30
2019,08,13,03,43,14.40
2019,08,13,03,44,14.40
2019,08,13,03,45,14.50
2019,08,13,03,46,14.60
2019,08,13,03,47,14.60
2019,08,13,03,48,14.60
2019,08,13,03,49,14.70
2019,08,13,03,50,14.80
2019,08,13,03,51,15.00
2019,08,13,03,52,15.30
2019,08,13,03,53,15.50
2019,08,13,03,54,15.60
2019,08,13,03,55,15.60
2019,08,13,03,56,15.60
2019,08,13,03,57,15.70
2019,08,13,03,58,15.60
2019,08,13,03,59,15.60
2019,08,13,04,00,15.60
2019,08,13,04,01,15.60
2019,08,13,04,02,15.60
2019,08,13,04,03,15.70
2019,08,13,04,04,15.70
2019,08,13,04,05,15.80
2019,08,13,04,06,15.80
2019,08,13,04,07,15.80
2019,08,13,04,08,15.80
2019,08,13,04,09,15.80
2019,08,13,04,10,15.70
2019,08,13,04,11,15.70
2019,08,13,04,12,15.70
2019,08,13,04,13,15.70
2019,08,13,04,14,15.60
2019,08,13,04,15,15.60
2019,08,13,04,16,15.50
2019,08,13,04,17,15.50
2019,08,13,04,18,15.50
2019,08,13,04,19,15.40
2019,08,13,04,20,15.40
2019,08,13,04,21,15.30
2019,08,13,04,22,15.30
2019,08,13,04,23,15.20
2019,08,13,04,24,15.20
2019,08,13,04,25,15.20
2019,08,13,04,26,15.20
2019,08,13,04,27,15.20
2019,08,13,04,28,15.20
2019,08,13,04,29,15.10
2019,08,13,04,30,15.00
2019,08,13,04,31,14.90
2019,08,13,04,32,14.80
2019,08,13,04,33,14.70
2019,08,13,04,34,14.60
2019,08,13,04,35,14.40
2019,08,13,04,36,14.30
2019,08,13,04,37,14.20
2019,08,13,04,38,14.10
2019,08,13,04,39,14.10
2019,08,13,04,40,14.00
2019,08,13,04,41,13.90
2019,08,13,04,42,13.80
2019,08,13,04,43,13.80
2019,08,13,04,44,13.70
2019,08,13,04,45,13.60
2019,08,13,04,46,13.60
2019,08,13,04,47,13.50
2019,08,13,04,48,13.50
2019,08,13,04,49,13.40
2019,08,13,04,50,13.40
2019,08,13,04,51,13.40
2019,08,13,04,52,13.40
2019,08,13,04,53,13.40
2019,08,13,04,54,13.40
2019,08,13,04,55,13.40
2019,08,13,04,56,13.40
2019,08,13,04,57,13.50
2019,08,13,04,58,13.50
2019,08,13,04,59,13.50
2019,08,13,05,00,13.50
2019,08,13,05,01,13.60
2019,08,13,05,02,13.60
2019,08,13,05,03,13.60
2019,08,13,05,04,13.60
2019,08,13,05,05,13.60
2019,08,13,05,06,13.60
2019,08,13,05,07,13.60
2019,08,13,05,08,13.60
2019,08,13,05,09,13.50
2019,08,13,05,10,13.50
2019,08,13,05,11,13.40
2019,08,13,05,12,13.40
2019,08,13,05,13,13.30
2019,08,13,05,14,13.30
2019,08,13,05,15,13.30
2019,08,13,05,16,13.30
2019,08,13,05,17,13.40
2019,08,13,05,18,13.40
2019,08,13,05,19,13.50
2019,08,13,05,20,13.50
2019,08,13,05,21,13.50
2019,08,13,05,22,13.60
2019,08,13,05,23,13.60
2019,08,13,05,24,13.60
2019,08,13,05,25,13.70
2019,08,13,05,26,13.70
2019,08,13,05,27,13.70
2019,08,13,05,28,13.70
2019,08,13,05,29,13.70
2019,08,13,05,30,13.70
2019,08,13,05,31,13.70
2019,08,13,05,32,13.70
2019,08,13,05,33,13.60
2019,08,13,05,34,13.60
2019,08,13,05,35,13.60
2019,08,13,05,36,13.60
2019,08,13,05,37,13.60
2019,08,13,05,38,13.60
2019,08,13,05,39,13.60
2019,08,13,05,40,13.60
2019,08,13,05,41,13.60
2019,08,13,05,42,13.60
2019,08,13,05,43,13.60
2019,08,13,05,44,13.60
2019,08,13,05,45,13.60
2019,08,13,05,46,13.60
2019,08,13,05,47,13.60
2019,08,13,05,48,13.70
2019,08,13,05,49,13.70
2019,08,13,05,50,13.70
2019,08,13,05,51,13.70
2019,08,13,05,52,13.70
2019,08,13,05,53,13.70
2019,08,13,05,54,13.80
2019,08,13,05,55,13.80
2019,08,13,05,56,13.90
2019,08,13,05,57,14.00
2019,08,13,05,58,14.10
2019,08,13,05,59,14.20
2019,08,13,06,00,14.20
2019,08,13,06,01,14.20
2019,08,13,06,02,14.30
2019,08,13,06,03,14.30
2019,08,13,06,04,14.30
2019,08,13,06,05,14.30
2019,08,13,06,06,14.40
2019,08,13,06,07,14.40
2019,08,13,06,08,14.40
2019,08,13,06,09,14.50
2019,08,13,06,10,14.60
2019,08,13,06,11,14.60
2019,08,13,06,12,14.70
2019,08,13,06,13,14.80
2019,08,13,06,14,14.80
2019,08,13,06,15,14.80
2019,08,13,06,16,14.80
2019,08,13,06,17,14.90
2019,08,13,06,18,14.90
2019,08,13,06,19,14.80
2019,08,13,06,20,14.80
2019,08,13,06,21,14.70
2019,08,13,06,22,14.70
2019,08,13,06,23,14.60
2019,08,13,06,24,14.60
2019,08,13,06,25,14.60
2019,08,13,06,26,14.60
2019,08,13,06,27,14.50
2019,08,13,06,28,14.50
2019,08,13,06,29,14.50
2019,08,13,06,30,14.50
2019,08,13,06,31,14.50
2019,08,13,06,32,14.50
2019,08,13,06,33,14.40
2019,08,13,06,34,14.50
2019,08,13,06,35,14.50
2019,08,13,06,36,14.50
2019,08,13,06,37,14.60
2019,08,13,06,38,14.60
2019,08,13,06,39,14.60
2019,08,13,06,40,14.70
2019,08,13,06,41,14.70
2019,08,13,06,42,14.80
2019,08,13,06,43,14.80
2019,08,13,06,44,14.80
2019,08,13,06,45,14.80
2019,08,13,06,46,14.80
2019,08,13,06,47,14.90
2019,08,13,06,48,14.90
2019,08,13,06,49,14.90
2019,08,13,06,50,14.90
2019,08,13,06,51,15.10
2019,08,13,06,52,15.10
2019,08,13,06,53,15.10
2019,08,13,06,54,15.10
2019,08,13,06,55,15.10
2019,08,13,06,56,15.10
2019,08,13,06,57,15.10
2019,08,13,06,58,15.10
2019,08,13,06,59,15.10
2019,08,13,07,00,15.10
2019,08,13,07,01,15.10
2019,08,13,07,02,15.10
2019,08,13,07,03,15.00
2019,08,13,07,04,14.90
2019,08,13,07,05,14.90
2019,08,13,07,06,14.80
2019,08,13,07,07,14.80
2019,08,13,07,08,14.80
2019,08,13,07,09,14.80
2019,08,13,07,10,14.80
2019,08,13,07,11,14.90
2019,08,13,07,12,14.90
2019,08,13,07,13,14.90
2019,08,13,07,14,14.90
2019,08,13,07,15,14.90
2019,08,13,07,16,14.90
2019,08,13,07,17,15.00
2019,08,13,07,18,15.00
2019,08,13,07,19,15.00
2019,08,13,07,20,15.00
2019,08,13,07,21,15.00
2019,08,13,07,22,15.00
2019,08,13,07,23,15.00
2019,08,13,07,24,15.10
2019,08,13,07,25,15.10
2019,08,13,07,26,15.10
2019,08,13,07,27,15.10
2019,08,13,07,28,15.20
2019,08,13,07,29,15.20
2019,08,13,07,30,15.20
2019,08,13,07,31,15.30
2019,08,13,07,32,15.30
2019,08,13,07,33,15.30
2019,08,13,07,34,15.30
2019,08,13,07,35,15.40
2019,08,13,07,36,15.30
2019,08,13,07,37,15.30
2019,08,13,07,38,15.30
2019,08,13,07,39,15.20
2019,08,13,07,40,15.20
2019,08,13,07,41,15.10
2019,08,13,07,42,15.10
2019,08,13,07,43,15.00
2019,08,13,07,44,15.00
2019,08,13,07,45,15.00
2019,08,13,07,46,15.10
2019,08,13,07,47,15.10
2019,08,13,07,48,15.20
2019,08,13,07,49,15.20
2019,08,13,07,50,15.30
2019,08,13,07,51,15.30
2019,08,13,07,52,15.30
2019,08,13,07,53,15.40
2019,08,13,07,54,15.40
2019,08,13,07,55,15.40
2019,08,13,07,56,15.50
2019,08,13,07,57,15.40
2019,08,13,07,58,15.40
2019,08,13,07,59,15.40
2019,08,13,08,00,15.40
2019,08,13,08,01,15.40
2019,08,13,08,02,15.40
2019,08,13,08,03,15.40
2019,08,13,08,04,15.40
2019,08,13,08,05,15.40
2019,08,13,08,06,15.50
2019,08,13,08,07,15.50
2019,08,13,08,08,15.50
2019,08,13,08,09,15.50
2019,08,13,08,10,15.60
2019,08,13,08,11,15.70
2019,08,13,08,12,15.70
2019,08,13,08,13,15.70
2019,08,13,08,14,15.70
2019,08,13,08,15,15.80
2019,08,13,08,16,15.80
2019,08,13,08,17,15.80
2019,08,13,08,18,15.80
2019,08,13,08,19,15.80
2019,08,13,08,20,15.80
2019,08,13,08,21,15.80
2019,08,13,08,22,15.80
2019,08,13,08,23,15.70
2019,08,13,08,24,15.60
2019,08,13,08,25,15.50
2019,08,13,08,26,15.50
2019,08,13,08,27,15.50
2019,08,13,08,28,15.60
2019,08,13,08,29,15.60
2019,08,13,08,30,15.60
2019,08,13,08,31,15.60
2019,08,13,08,32,15.50
2019,08,13,08,33,15.50
2019,08,13,08,34,15.40
2019,08,13,08,35,15.30
2019,08,13,08,36,15.30
2019,08,13,08,37,15.20
2019,08,13,08,38,15.20
2019,08,13,08,39,15.20
2019,08,13,08,40,15.20
2019,08,13,08,41,15.20
2019,08,13,08,42,15.20
2019,08,13,08,43,15.20
2019,08,13,08,44,15.20
2019,08,13,08,45,15.30
2019,08,13,08,46,15.30
2019,08,13,08,47,15.30
2019,08,13,08,48,15.40
2019,08,13,08,49,15.40
2019,08,13,08,50,15.40
2019,08,13,08,51,15.50
2019,08,13,08,52,15.60
2019,08,13,08,53,15.70
2019,08,13,08,54,15.80
2019,08,13,08,55,15.80
2019,08,13,08,56,15.80
2019,08,13,08,57,15.80
2019,08,13,08,58,15.90
2019,08,13,08,59,15.90
2019,08,13,09,00,16.00
2019,08,13,09,01,16.00
2019,08,13,09,02,16.10
2019,08,13,09,03,16.10
2019,08,13,09,04,16.20
2019,08,13,09,05,16.30
2019,08,13,09,06,16.40
2019,08,13,09,07,16.50
2019,08,13,09,08,16.70
2019,08,13,09,09,16.80
2019,08,13,09,10,16.90
2019,08,13,09,11,17.00
2019,08,13,09,12,17.10
2019,08,13,09,13,17.00
2019,08,13,09,14,17.00
2019,08,13,09,15,17.10
2019,08,13,09,16,17.10
2019,08,13,09,17,17.20
2019,08,13,09,18,17.20
2019,08,13,09,19,17.20
2019,08,13,09,20,17.10
2019,08,13,09,21,17.10
2019,08,13,09,22,17.00
2019,08,13,09,23,16.90
2019,08,13,09,24,16.90
2019,08,13,09,25,16.90
2019,08,13,09,26,16.80
2019,08,13,09,27,16.90
2019,08,13,09,28,16.90
2019,08,13,09,29,17.00
2019,08,13,09,30,17.10
2019,08,13,09,31,17.20
2019,08,13,09,32,17.20
2019,08,13,09,33,17.30
2019,08,13,09,34,17.20
2019,08,13,09,35,17.10
2019,08,13,09,36,17.10
2019,08,13,09,37,17.00
2019,08,13,09,38,16.90
2019,08,13,09,39,16.80
2019,08,13,09,40,16.70
2019,08,13,09,41,16.70
2019,08,13,09,42,16.60
2019,08,13,09,43,16.70
2019,08,13,09,44,16.70
2019,08,13,09,45,16.70
2019,08,13,09,46,16.70
2019,08,13,09,47,16.80
2019,08,13,09,48,16.80
2019,08,13,09,49,16.90
2019,08,13,09,50,17.00
2019,08,13,09,51,17.10
2019,08,13,09,52,17.00
2019,08,13,09,53,17.00
2019,08,13,09,54,17.00
2019,08,13,09,55,17.10
2019,08,13,09,56,17.20
2019,08,13,09,57,17.30
2019,08,13,09,58,17.30
2019,08,13,09,59,17.30
2019,08,13,10,00,17.30
2019,08,13,10,01,17.30
2019,08,13,10,02,17.40
2019,08,13,10,03,17.40
2019,08,13,10,04,17.40
2019,08,13,10,05,17.50
2019,08,13,10,06,17.50
2019,08,13,10,07,17.40
2019,08,13,10,08,17.40
2019,08,13,10,09,17.40
2019,08,13,10,10,17.50
2019,08,13,10,11,17.50
2019,08,13,10,12,17.50
2019,08,13,10,13,17.60
2019,08,13,10,14,17.60
2019,08,13,10,15,17.60
2019,08,13,10,16,17.70
2019,08,13,10,17,17.70
2019,08,13,10,18,17.80
2019,08,13,10,19,17.80
2019,08,13,10,20,17.80
2019,08,13,10,21,17.80
2019,08,13,10,22,17.80
2019,08,13,10,23,17.80
2019,08,13,10,24,17.80
2019,08,13,10,25,17.80
2019,08,13,10,26,17.80
2019,08,13,10,27,17.80
2019,08,13,10,28,17.80
2019,08,13,10,29,17.80
2019,08,13,10,30,17.80
2019,08,13,10,31,17.80
2019,08,13,10,32,17.80
2019,08,13,10,33,17.90
2019,08,13,10,34,17.90
2019,08,13,10,35,17.90
2019,08,13,10,36,18.00
2019,08,13,10,37,18.00
2019,08,13,10,38,18.10
2019,08,13,10,39,18.20
2019,08,13,10,40,18.20
2019,08,13,10,41,18.20
2019,08,13,10,42,18.20
2019,08,13,10,43,18.20
2019,08,13,10,44,18.20
2019,08,13,10,45,18.20
2019,08,13,10,46,18.20
2019,08,13,10,47,18.20
2019,08,13,10,48,18.20
2019,08,13,10,49,18.20
2019,08,13,10,50,18.30
2019,08,13,10,51,18.20
2019,08,13,10,52,18.30
2019,08,13,10,53,18.30
2019,08,13,10,54,18.30
2019,08,13,10,55,18.20
2019,08,13,10,56,18.20
2019,08,13,10,57,18.20
2019,08,13,10,58,18.20
2019,08,13,10,59,18.10
2019,08,13,11,00,18.00
2019,08,13,11,01,18.00
2019,08,13,11,02,18.00
2019,08,13,11,03,18.00
2019,08,13,11,04,18.00
2019,08,13,11,05,18.00
2019,08,13,11,06,18.00
2019,08,13,11,07,18.00
2019,08,13,11,08,18.00
2019,08,13,11,09,18.00
2019,08,13,11,10,18.10
2019,08,13,11,11,18.10
2019,08,13,11,12,18.10
2019,08,13,11,13,18.10
2019,08,13,11,14,18.10
2019,08,13,11,15,18.10
2019,08,13,11,16,18.20
2019,08,13,11,17,18.20
2019,08,13,11,18,18.20
2019,08,13,11,19,18.30
2019,08,13,11,20,18.30
2019,08,13,11,21,18.30
2019,08,13,11,22,18.30
2019,08,13,11,23,18.30
2019,08,13,11,24,18.30
2019,08,13,11,25,18.30
2019,08,13,11,26,18.30
2019,08,13,11,27,18.30
2019,08,13,11,28,18.30
2019,08,13,11,29,18.30
2019,08,13,11,30,18.20
2019,08,13,11,31,18.20
2019,08,13,11,32,18.20
2019,08,13,11,33,18.10
2019,08,13,11,34,18.10
2019,08,13,11,35,18.10
2019,08,13,11,36,18.10
2019,08,13,11,37,18.10
2019,08,13,11,38,18.10
2019,08,13,11,39,18.10
2019,08,13,11,40,18.00
2019,08,13,11,41,18.00
2019,08,13,11,42,17.90
2019,08,13,11,43,17.90
2019,08,13,11,44,17.90
2019,08,13,11,45,17.80
2019,08,13,11,46,17.70
2019,08,13,11,47,17.60
2019,08,13,11,48,17.60
2019,08,13,11,49,17.50
2019,08,13,11,50,17.50
2019,08,13,11,51,17.40
2019,08,13,11,52,17.40
2019,08,13,11,53,17.30
2019,08,13,11,54,17.30
2019,08,13,11,55,17.30
2019,08,13,11,56,17.20
2019,08,13,11,57,17.10
2019,08,13,11,58,17.10
2019,08,13,11,59,17.00
2019,08,13,12,00,16.90
2019,08,13,12,01,16.80
2019,08,13,12,02,16.60
2019,08,13,12,03,16.60
2019,08,13,12,04,16.50
2019,08,13,12,05,16.50
2019,08,13,12,06,16.50
2019,08,13,12,07,16.50
2019,08,13,12,08,16.50
2019,08,13,12,09,16.50
2019,08,13,12,10,16.50
2019,08,13,12,11,16.50
2019,08,13,12,12,16.40
2019,08,13,12,13,16.40
2019,08,13,12,14,16.50
2019,08,13,12,15,16.50
2019,08,13,12,16,16.60
2019,08,13,12,17,16.60
2019,08,13,12,18,16.70
2019,08,13,12,19,16.70
2019,08,13,12,20,16.80
2019,08,13,12,21,16.80
2019,08,13,12,22,16.90
2019,08,13,12,23,16.90
2019,08,13,12,24,17.00
2019,08,13,12,25,17.00
2019,08,13,12,26,17.00
2019,08,13,12,27,17.00
2019,08,13,12,28,17.00
2019,08,13,12,29,16.80
2019,08,13,12,30,16.10
2019,08,13,12,31,15.70
2019,08,13,12,32,15.60
2019,08,13,12,33,15.50
2019,08,13,12,34,15.40
2019,08,13,12,35,15.20
2019,08,13,12,36,15.10
2019,08,13,12,37,15.20
2019,08,13,12,38,15.30
2019,08,13,12,39,15.40
2019,08,13,12,40,15.20
2019,08,13,12,41,15.10
2019,08,13,12,42,14.90
2019,08,13,12,43,14.90
2019,08,13,12,44,14.90
2019,08,13,12,45,15.10
2019,08,13,12,46,15.20
2019,08,13,12,47,15.30
2019,08,13,12,48,15.40
2019,08,13,12,49,15.40
2019,08,13,12,50,15.40
2019,08,13,12,51,15.50
2019,08,13,12,52,15.50
2019,08,13,12,53,15.70
2019,08,13,12,54,15.80
2019,08,13,12,55,16.00
2019,08,13,12,56,16.10
2019,08,13,12,57,16.20
2019,08,13,12,58,16.40
2019,08,13,12,59,16.50
2019,08,13,13,00,16.60
2019,08,13,13,01,16.50
2019,08,13,13,02,16.50
2019,08,13,13,03,16.30
2019,08,13,13,04,16.10
2019,08,13,13,05,15.90
2019,08,13,13,06,15.60
2019,08,13,13,07,15.40
2019,08,13,13,08,15.40
2019,08,13,13,09,15.30
2019,08,13,13,10,15.20
2019,08,13,13,11,15.20
2019,08,13,13,12,15.20
2019,08,13,13,13,15.20
2019,08,13,13,14,15.20
2019,08,13,13,15,15.10
2019,08,13,13,16,14.70
2019,08,13,13,17,14.70
2019,08,13,13,18,14.70
2019,08,13,13,19,14.80
2019,08,13,13,20,14.70
2019,08,13,13,21,14.60
2019,08,13,13,22,14.60
2019,08,13,13,23,14.60
2019,08,13,13,24,14.60
2019,08,13,13,25,14.60
2019,08,13,13,26,14.60
2019,08,13,13,27,14.60
2019,08,13,13,28,14.60
2019,08,13,13,29,14.60
2019,08,13,13,30,14.60
2019,08,13,13,31,14.60
2019,08,13,13,32,14.70
2019,08,13,13,33,14.70
2019,08,13,13,34,14.70
2019,08,13,13,35,14.80
2019,08,13,13,36,14.80
2019,08,13,13,37,14.80
2019,08,13,13,38,14.80
2019,08,13,13,39,14.80
2019,08,13,13,40,14.90
2019,08,13,13,41,14.90
2019,08,13,13,42,14.90
2019,08,13,13,43,14.90
2019,08,13,13,44,14.90
2019,08,13,13,45,14.90
2019,08,13,13,46,14.80
2019,08,13,13,47,14.80
2019,08,13,13,48,14.80
2019,08,13,13,49,14.80
2019,08,13,13,50,14.80
2019,08,13,13,51,14.90
2019,08,13,13,52,14.90
2019,08,13,13,53,14.90
2019,08,13,13,54,15.00
2019,08,13,13,55,15.00
2019,08,13,13,56,15.10
2019,08,13,13,57,15.10
2019,08,13,13,58,15.10
2019,08,13,13,59,15.20
2019,08,13,14,00,15.40
2019,08,13,14,01,15.50
2019,08,13,14,02,15.60
2019,08,13,14,03,15.70
2019,08,13,14,04,15.70
2019,08,13,14,05,15.70
2019,08,13,14,06,15.80
2019,08,13,14,07,15.80
2019,08,13,14,08,15.90
2019,08,13,14,09,15.90
2019,08,13,14,10,15.90
2019,08,13,14,11,15.90
2019,08,13,14,12,15.80
2019,08,13,14,13,15.70
2019,08,13,14,14,15.50
2019,08,13,14,15,15.50
2019,08,13,14,16,15.40
2019,08,13,14,17,15.40
2019,08,13,14,18,15.40
2019,08,13,14,19,15.40
2019,08,13,14,20,15.30
2019,08,13,14,21,15.30
2019,08,13,14,22,15.30
2019,08,13,14,23,15.30
2019,08,13,14,24,15.30
2019,08,13,14,25,15.30
2019,08,13,14,26,15.30
2019,08,13,14,27,15.30
2019,08,13,14,28,15.30
2019,08,13,14,29,15.40
2019,08,13,14,30,15.40
2019,08,13,14,31,15.50
2019,08,13,14,32,15.50
2019,08,13,14,33,15.40
2019,08,13,14,34,15.50
2019,08,13,14,35,15.50
2019,08,13,14,36,15.60
2019,08,13,14,37,15.60
2019,08,13,14,38,15.70
2019,08,13,14,39,15.70
2019,08,13,14,40,15.80
2019,08,13,14,41,15.80
2019,08,13,14,42,15.90
2019,08,13,14,43,15.90
2019,08,13,14,44,15.90
2019,08,13,14,45,16.00
2019,08,13,14,46,16.00
2019,08,13,14,47,16.00
2019,08,13,14,48,16.10
2019,08,13,14,49,16.10
2019,08,13,14,50,16.10
2019,08,13,14,51,16.10
2019,08,13,14,52,16.10
2019,08,13,14,53,16.10
2019,08,13,14,54,16.10
2019,08,13,14,55,16.10
2019,08,13,14,56,16.10
2019,08,13,14,57,16.10
2019,08,13,14,58,16.20
2019,08,13,14,59,16.30
2019,08,13,15,00,16.30
2019,08,13,15,01,16.40
2019,08,13,15,02,16.40
2019,08,13,15,03,16.40
2019,08,13,15,04,16.40
2019,08,13,15,05,16.40
2019,08,13,15,06,16.50
2019,08,13,15,07,16.50
2019,08,13,15,08,16.60
2019,08,13,15,09,16.60
2019,08,13,15,10,16.60
2019,08,13,15,11,16.70
2019,08,13,15,12,16.80
2019,08,13,15,13,16.80
2019,08,13,15,14,16.90
2019,08,13,15,15,17.00
2019,08,13,15,16,17.10
2019,08,13,15,17,17.20
2019,08,13,15,18,17.30
2019,08,13,15,19,17.30
2019,08,13,15,20,17.30
2019,08,13,15,21,17.30
2019,08,13,15,22,17.40
2019,08,13,15,23,17.60
2019,08,13,15,24,17.80
2019,08,13,15,25,18.00
2019,08,13,15,26,18.20
2019,08,13,15,27,18.30
2019,08,13,15,28,18.30
2019,08,13,15,29,18.30
2019,08,13,15,30,18.30
2019,08,13,15,31,18.20
2019,08,13,15,32,18.20
2019,08,13,15,33,18.20
2019,08,13,15,34,18.20
2019,08,13,15,35,18.10
2019,08,13,15,36,18.00
2019,08,13,15,37,17.80
2019,08,13,15,38,17.60
2019,08,13,15,39,17.60
2019,08,13,15,40,17.60
2019,08,13,15,41,17.70
2019,08,13,15,42,17.90
2019,08,13,15,43,18.10
2019,08,13,15,44,18.30
2019,08,13,15,45,18.50
2019,08,13,15,46,18.60
2019,08,13,15,47,18.70
2019,08,13,15,48,18.70
2019,08,13,15,49,18.70
2019,08,13,15,50,18.70
2019,08,13,15,51,18.50
2019,08,13,15,52,18.40
2019,08,13,15,53,18.30
2019,08,13,15,54,18.30
2019,08,13,15,55,18.30
2019,08,13,15,56,18.30
2019,08,13,15,57,18.30
2019,08,13,15,58,18.40
2019,08,13,15,59,18.40
2019,08,13,16,00,18.50
2019,08,13,16,01,18.50
2019,08,13,16,02,18.50
2019,08,13,16,03,18.50
2019,08,13,16,04,18.40
2019,08,13,16,05,18.30
2019,08,13,16,06,18.30
2019,08,13,16,07,18.30
2019,08,13,16,08,18.40
2019,08,13,16,09,18.40
2019,08,13,16,10,18.40
2019,08,13,16,11,18.40
2019,08,13,16,12,18.50
2019,08,13,16,13,18.60
2019,08,13,16,14,18.60
2019,08,13,16,15,18.80
2019,08,13,16,16,18.90
2019,08,13,16,17,19.00
2019,08,13,16,18,19.10
2019,08,13,16,19,19.30
2019,08,13,16,20,19.40
2019,08,13,16,21,19.50
2019,08,13,16,22,19.60
2019,08,13,16,23,19.60
2019,08,13,16,24,19.70
2019,08,13,16,25,19.70
2019,08,13,16,26,19.60
2019,08,13,16,27,19.60
2019,08,13,16,28,19.50
2019,08,13,16,29,19.40
2019,08,13,16,30,19.40
2019,08,13,16,31,19.50
2019,08,13,16,32,19.60
2019,08,13,16,33,19.60
2019,08,13,16,34,19.60
2019,08,13,16,35,19.70
2019,08,13,16,36,19.70
2019,08,13,16,37,19.70
2019,08,13,16,38,19.80
2019,08,13,16,39,19.80
2019,08,13,16,40,19.70
2019,08,13,16,41,19.70
2019,08,13,16,42,19.70
2019,08,13,16,43,19.70
2019,08,13,16,44,19.60
2019,08,13,16,45,19.60
2019,08,13,16,46,19.60
2019,08,13,16,47,19.60
2019,08,13,16,48,19.60
2019,08,13,16,49,19.60
2019,08,13,16,50,19.70
2019,08,13,16,51,19.80
2019,08,13,16,52,19.80
2019,08,13,16,53,19.90
2019,08,13,16,54,19.90
2019,08,13,16,55,20.00
2019,08,13,16,56,20.00
2019,08,13,16,57,20.00
2019,08,13,16,58,20.10
2019,08,13,16,59,20.00
2019,08,13,17,00,20.00
2019,08,13,17,01,20.00
2019,08,13,17,02,20.00
2019,08,13,17,03,20.00
2019,08,13,17,04,19.90
2019,08,13,17,05,19.90
2019,08,13,17,06,19.90
2019,08,13,17,07,19.90
2019,08,13,17,08,19.90
2019,08,13,17,09,19.90
2019,08,13,17,10,19.90
2019,08,13,17,11,20.00
2019,08,13,17,12,20.10
2019,08,13,17,13,20.10
2019,08,13,17,14,20.10
2019,08,13,17,15,20.20
2019,08,13,17,16,20.20
2019,08,13,17,17,20.20
2019,08,13,17,18,20.20
2019,08,13,17,19,20.20
2019,08,13,17,20,20.20
2019,08,13,17,21,20.20
2019,08,13,17,22,20.20
2019,08,13,17,23,20.20
2019,08,13,17,24,20.20
2019,08,13,17,25,20.20
2019,08,13,17,26,20.20
2019,08,13,17,27,20.20
2019,08,13,17,28,20.20
2019,08,13,17,29,20.20
2019,08,13,17,30,20.20
2019,08,13,17,31,20.20
2019,08,13,17,32,20.20
2019,08,13,17,33,20.20
2019,08,13,17,34,20.20
2019,08,13,17,35,20.20